Regional Weather Roundup
Issued by NWS Green Bay, WI

Home | Current Version | Previous Version | Graphics & Text | Print | Product List | Glossary Off
Versions: 1 2 3 4 5 6 7 8 9 10 11 12 13 14 15 16 17 18 19 20 21 22 23 24 25 26 27 28 29 30 31 32 33 34 35 36 37 38 39 40 41 42 43 44 45 46 47 48 49 50

000
ASUS43 KGRB 241811
RWRGRB

NORTH-CENTRAL AND NORTHEAST WISCONSIN REGIONAL WEATHER ROUNDUP
NATIONAL WEATHER SERVICE GREEN BAY WI
100 PM CDT TUE MAY 24 2016

WIZ005-009-010>012-018-019-241900-
NORTH CENTRAL WISCONSIN

CITY           SKY/WX    TMP DP  RH WIND       PRES   REMARKS
IRONWOOD       NOT AVBL
MANITOWISH WTR CLOUDY    70  62  74 W9        29.90S
ARBOR VITAE    CLOUDY    72  63  73 S9        29.92R
EAGLE RIVER    LGT RAIN  67  61  81 SW8       29.92R
LAND O LAKES   PTSUNNY   71  61  71 SW6       29.92S
RHINELANDER    LGT RAIN  67  62  84 W3        29.94R
PHILLIPS       CLOUDY    69  63  80 SW7       29.91R
ANTIGO         CLOUDY    69  60  73 S8        29.94R
TOMAHAWK       CLOUDY    69  61  75 CALM      29.93R
MERRILL        CLOUDY    69  61  76 SW7       29.93R
$$

WIZ013-073-241900-
NORTHEAST WISCONSIN

CITY           SKY/WX    TMP DP  RH WIND       PRES   REMARKS
IRON MOUNTAIN  LGT RAIN  72  62  71 SE7       29.89S
MARINETTE      CLOUDY    75  54  46 SW8       29.90S
OCONTO         CLOUDY    77  56  47 S8        29.89S
$$

WIZ017-030-035>037-045-241900-
CENTRAL WISCONSIN

CITY           SKY/WX    TMP DP  RH WIND       PRES   REMARKS
MEDFORD        CLOUDY    70  63  77 SW9       29.93S
WAUSAU         CLOUDY    74  58  57 SW8       29.91R
MOSINEE        PTSUNNY   72  61  68 S7        29.93R
MARSHFIELD     CLOUDY    77  61  57 SW10      29.92R
WISC RAPIDS    CLOUDY    75  57  53 SW13      29.94R
STEVENS POINT  MOSUNNY   76  59  55 SW10      29.93S
WAUPACA        CLOUDY    79  59  51 SW9       29.93R
SHAWANO        CLOUDY    76  57  51 CALM      29.91S
CLINTONVILLE   CLOUDY    73  55  53 SW8       29.91S
WAUTOMA        CLOUDY    77  59  53 SW9       29.93R
$$

WIZ038-039-048-051-241900-
FOX VALLEY

CITY           SKY/WX    TMP DP  RH WIND       PRES   REMARKS
NWS GREEN BAY  CLOUDY    78  57  48 SW9       29.91R
APPLETON       PTSUNNY   75  55  50 SW9       29.91R
OSHKOSH        CLOUDY    79  58  48 S13G20    29.92R
FOND DU LAC    CLOUDY    78  61  55 SW9       29.93R
$$

WIZ022-050-052-241900-
EAST CENTRAL WISCONSIN

CITY           SKY/WX    TMP DP  RH WIND       PRES   REMARKS
EPHRAIM        MOCLDY    76  52  43 S8G16     29.91S
STURGEON BAY   NOT AVBL
MANITOWOC      MOSUNNY   72  53  51 S20       29.92S
SHEBOYGAN      PTSUNNY   82  58  43 SW13      29.92S
$$

LMZ563-521-522-541>543-241900-
LAKESHORE

STATION/POSITION TIME  TEMP    WIND        PRES    VSBY  WAVE
                       AIR SEA DIR/SP/G                  HT/PER
                 (UTC) (F)     (DEG/KT/KT) (MB)    (MI)  (FT/S)
SHEBOYGAN LKSHOR 1800   60     170/ 22/ 23 1013.7F
KEWAUNEE LKSHORE 1700   56     180/ 11/ 13 1012.3F
ALGOMA MARINA    1716          210/  8/ 10   N/A
NORTHPORT PIER   1700   55     140/  7/ 10 1012.9F
N MID LAKE BUOY  1750   47 45  180/  8/  8 1013.2F         2/ 4
SISTER BAY LKSHO 1719   67      20/  7/  7   N/A
CHAMBERS ISLAND  1700   75     280/  1/  5 1012.5F
MENOMINEE LKSHOR 1700   67     170/  5/  6 1011.4F
$$




USA.gov is the U.S. government's official web portal to all federal, state and local government web resources and services.